Miscellaneous Local Product
Issued by NWS Hastings, NE

Home | Current Version | Previous Version | Graphics & Text | Print | Product List | Glossary On
Versions: 1 2 3 4 5 6 7 8 9 10 11 12 13 14 15 16 17 18 19 20 21 22 23 24 25 26 27 28 29 30 31 32 33 34 35 36 37 38 39 40 41 42 43 44 45 46 47 48 49 50
000
AXUS43 KGID 302102
MISGRI

GID CWA HOURLY WEATHER ROUNDUP
NATIONAL WEATHER SERVICE HASTINGS NE
400 PM CDT TUE AUG 30 2016

NOTE: "FAIR" INDICATES FEW OR NO CLOUDS BELOW 12,000 FEET WITH NO
SIGNIFICANT WEATHER AND/OR OBSTRUCTIONS TO VISIBILITY.

...SOUTH CENTRAL NEBRASKA...

CITY           SKY/WX    TMP DP  RH WIND       PRES   REMARKS
GRAND ISLAND   LGT RAIN  73  68  84 S6        30.18F
HASTINGS       CLOUDY    75  67  76 E10       30.20F
KEARNEY        CLOUDY    75  63  64 E8        30.18F
ORD            CLOUDY    79  64  60 E6        30.17F
YORK           CLOUDY    75  68  78 NE3       30.18R
AURORA         CLOUDY    73  70  88 SW7       30.17F
LEXINGTON      CLOUDY    74  65  74 CALM      30.21F
HOLDREGE       CLOUDY    76  65  68 N5        30.20F
HEBRON         CLOUDY    77  69  75 E6        30.15F

...NEBRASKA PANHANDLE...

CITY           SKY/WX    TMP DP  RH WIND       PRES   REMARKS
CHADRON        MOSUNNY   89  48  24 SE7G20    30.18F
ALLIANCE       MOSUNNY   81  54  39 SE7       30.22F
SCOTTSBLUFF    SUNNY     85  54  34 E8        30.23F
SIDNEY         PTSUNNY   75  57  53 S14       30.27F

...WESTERN AND NORTH CENTRAL NEBRASKA...

CITY           SKY/WX    TMP DP  RH WIND       PRES   REMARKS
VALENTINE      MOSUNNY   87  57  35 SE5       30.18F
AINSWORTH      SUNNY     85  61  44 SE9       30.19F
ONEILL         MOSUNNY   82  63  52 SE5       30.19F
BROKEN BOW     CLOUDY    77  65  66 CALM      30.20F
IMPERIAL       CLOUDY    76  63  64 E9        30.23S
NORTH PLATTE   CLOUDY    80  64  58 SE8       30.21F
MCCOOK         PTSUNNY   75  66  73 NE9       30.20F

...EASTERN NEBRASKA...

CITY           SKY/WX    TMP DP  RH WIND       PRES   REMARKS
NORFOLK        CLOUDY    78  67  68 W3        30.17F
SO SIOUX CITY  CLOUDY    82  69  64 N5        30.15F
TEKAMAH        CLOUDY    79  69  71 N3        30.15F
COLUMBUS       CLOUDY    73  63  68 N3        30.17F
ALBION         CLOUDY    77  67  70 CALM      30.19F
OMAHA EPPLEY   CLOUDY    80  68  66 N8        30.14F
MILLARD        MOSUNNY  N/A N/A N/A CALM      30.15S
LINCOLN        CLOUDY    80  69  69 N8        30.15F
NEBRASKA CITY  CLOUDY    77  69  77 CALM      30.14S
BEATRICE       CLOUDY    78  69  73 E3        30.14F
FALLS CITY     CLOUDY    81  71  71 VRB5      30.11F

...NORTHERN KANSAS...

CITY           SKY/WX    TMP DP  RH WIND       PRES   REMARKS
GOODLAND       CLOUDY    77  59  53 S12       30.21F
HILL CITY      CLOUDY    77  66  68 VRB3      30.17F
NORTON         LGT RAIN  75  63  64 NE5       30.18F
SMITH CENTER   PTSUNNY   79  66  65 N7        30.16F
BELOIT         SUNNY     75  64  69 CALM      30.13F
HAYS           PTSUNNY   79  63  57 CALM      30.15F
RUSSELL        PTSUNNY   81  68  64 N7        30.13F
CONCORDIA      CLOUDY    79  70  74 E3        30.13F
SALINA         TSTM      74  71  91 NE13      30.13R VSB 1/4
TOPEKA         CLOUDY    84  71  65 E3        30.09F



USA.gov is the U.S. government's official web portal to all federal, state and local government web resources and services.